Location: Bouchavesnes-Bergen
(49.9859°N, 2.9203°E)
Time: 05:08:53
(UTC+00:00)

Meteor 1-26 Rocket - Pass Details

Date: 09 March 2021
Orbit: 807 x 928 km, 81.3° (Epoch: 11 April)

Event Time Altitude Azimuth Distance (km) Brightness Sun altitude
Rises 04:45:29 0° 186° (S) 3,432 7.2 -15.1°
Reaches altitude 10° 04:47:52 10° 186° (S) 2,517 6.5 -14.7°
Maximum altitude 04:53:36 81° 100° (E) 910 4.4 -13.8°
Drops below altitude 10° 04:59:34 10° 14° (NNE) 2,611 7.0 -12.9°
Sets 05:02:05 0° 13° (NNE) 3,569 7.8 -12.5°
